Regional Weather Roundup
Issued by NWS

Home | Current Version | Previous Version | Graphics & Text | Print | Product List | Glossary On
Versions: 1 2 3 4 5 6 7 8 9 10 11 12 13 14 15 16 17 18 19 20 21 22 23 24 25 26 27 28 29 30 31 32 33 34 35 36 37 38 39 40 41 42 43 44 45 46 47 48 49 50
000
ASUS44 KMEG 220100
RWRTN
TENNESSEE HOURLY STATE WEATHER ROUNDUP
NATIONAL WEATHER SERVICE MEMPHIS TN
700 PM CST SUN DEC 21 2014

TNZ002-004-019-021-049-052-054-088>092-220200-
WEST TENNESSEE

CITY           SKY/WX    TMP DP  RH WIND       PRES   REMARKS
MEMPHIS INTL   PTCLDY    47  32  56 E3        30.00F
NWS MEMPHIS      N/A     43 N/A N/A MISG        N/A
JACKSON        CLEAR     38  31  76 CALM      30.02F
DYERSBURG      PTCLDY    43  25  49 E6        30.04S
UNION CITY     CLEAR     36  28  75 CALM      30.02S
PARIS          CLEAR     36  28  75 NE6       30.03F WCI  31
LEXINGTON      CLEAR     41  36  81 SE3       30.02F
SAVANNAH       CLEAR     39  37  93 S5        30.04F
$$

TNZ008-025-027-028-033-062-065-066-220200-
NORTH MIDDLE TENNESSEE

CITY           SKY/WX    TMP DP  RH WIND       PRES   REMARKS
NASHVILLE      MOCLDY    49  38  65 CALM      30.07F
CLARKSVILLE    PTCLDY    41  30  65 E6        30.06F
COOKEVILLE     CLOUDY    46  39  76 CALM      30.07S
CROSSVILLE     CLOUDY    45  36  70 CALM      30.08S
$$

TNZ061-075-076-078-094-096-097-220200-
SOUTH MIDDLE TENNESSEE

CITY           SKY/WX    TMP DP  RH WIND       PRES   REMARKS
FAYETTEVILLE   CLOUDY    48  39  71 MISG      30.06S
TULLAHOMA      CLOUDY    48  37  66 SE5       30.07F
WINCHESTER     CLOUDY    46  41  81 SE5       30.08S
SHELBYVILLE    CLOUDY    48  41  76 SE3       30.08S
$$

TNZ017-018-042-046-047-220200-
NORTHEAST TENNESSEE

CITY           SKY/WX    TMP DP  RH WIND       PRES   REMARKS
TRI CITIES     MOCLDY    39  34  82 CALM      30.11F
ELIZABETHTON   CLEAR     39  34  81 E5        30.12S
$$

TNZ012-013-036-069-073-074-220200-
CENTRAL EAST TENNESSEE

CITY           SKY/WX    TMP DP  RH WIND       PRES   REMARKS
KNOXVILLE      CLOUDY    44  35  70 NE3       30.10S
OAK RIDGE      CLOUDY    46  36  68 CALM      30.11F
GATLINBURG     CLEAR     39  36  87 CALM      30.09F
$$

TNZ083-085-099-220200-
SOUTHEAST TENNESSEE

CITY           SKY/WX    TMP DP  RH WIND       PRES   REMARKS
CHATTANOOGA    CLOUDY    47  38  71 N3        30.11S
$$

SKY/WX REPORTED AS FAIR MEANS FEW OR NO CLOUDS BELOW
12 THOUSAND FEET.



USA.gov is the U.S. government's official web portal to all federal, state and local government web resources and services.